Weather in Brusovo

Russia / Tver Oblast     57°51′24″N   35°24′26″E
temp.,
°C
wind,
m/s
gust,
m/s
humid.,
%
clouds,
%
prec.,
mm/h
press.,
hPa
HPBL,
m
7 may, fri
fri700:00+6sw5118596 0.1 10031030
03:00+5sw5108288 0.1 1004901
06:00+4sw4108890 0.0 1005756
09:00+7wsw51065100 0.1 10061290
12:00+11sw61043100 0.3 10072702
15:00+11sw594981 0.5 10072068
18:00+11sw485167 0.1 10071727
21:00+6s2780100 0.2 1009150
8 may, sat
sat800:00+5sse31087100 0.0 1008247
03:00+6sse41381100 0.0 1007551
06:00+6se51394100 1.9 10051229
09:00+7sse41095100 2.1 1004783
12:00+8ssw2698100 0.8 1004389
15:00+8nw468799 1.4 1005598
18:00+8nnw4779100 0.0 1006942
21:00+6nnw3987100 0.1 1007573
9 may, sun
sun900:00+4nnw41092100 0.1 1008600
03:00+4nnw5107996 0.1 1010931
06:00+3nnw51188100 0.0 1012711
09:00+6nnw596577 0.0 10131163
12:00+10nnw694247 0.0 10152000
15:00+12nnw6835100 0.0 10162739
18:00+12nw46455 0.0 10192029
21:00+5wnw266640 0.0 1022105
10 may, mon
mon1000:00+3w227521 0.0 102421
03:00+2wsw22755 0.0 102615
06:00+4ssw257175 0.0 1027117
09:00+11ssw374921 0.0 1028647
12:00+11ssw375857 0.0 1028725
15:00+15sw354755 0.0 10271234
18:00+16sw24555 0.0 10271154
21:00+10s22807 0.0 102931
11 may, tue
tue1100:00+8ssw228664 0.0 103023
03:00+7ssw228963 0.0 103028
06:00+8ssw2485100 0.0 1031102
09:00+15ssw2359100 0.0 1031444
12:00+18sse3448100 0.0 10311150
15:00+19sse234517 0.0 10291265
18:00+19sse24555 0.0 1028992
21:00+12se36835 0.0 1029116